Вернуться в каталог

STARLINK-30345

АктивенСвязьVLEO
NORAD 57701·PAYLOAD·🇺🇸 United States

Запущен Aug 27, 2023 с Cape Canaveral Space Force Station

Loading…

Ближайшие Пролёты (ближайшие 24 часа)

TLE

СвежийSource: CelesTrak SupGP

Эпоха: Sep 14, 2026, 22:28 UTC

1 57701C 23129D   26257.93659722 -.00042890  00000+0 -15537-2 0  2576
2 57701  43.0004 129.0570 0001395 270.6325 191.3261 15.27594633    19

Отслеживайте STARLINK-30345 в реальном времени с AllMySat

Download on the App Store